Notices

What's New in latest Release from April 7th, 2021:

- Updated Glossary, including Speed of Maximum Gust, and Total Hourly Precipitation

- Updated national and regional climate services offices contacts and prices information

- Addition of station inventory lists for 1981-2010, 1971-2000, and 1961-1990 Normals.

If you haven't already, please take our survey and provide feedback about our website: https://eccc.sondage-survey.ca/f/LanguageSelection.aspx?s=442ca660-fcf1-47c0-95a9-59707d6fd709

Hourly Data Report for January 23, 2021

EDMUNDSTON
NEW BRUNSWICK
Current Station Operator: ECCC - MSC

47°25'00.000" N
68°19'28.040" W
154.20 m
8101303
71590
ERM

Download Data

Hourly Data (January 2021)
Hourly Data Report for January 23, 2021
TIME
LST
Temp Definition
°C
Dew Point Definition
°C
Rel Hum Definition
%
Precip. Amount Definition
mm

Wind Dir Definition
10's deg

Wind Spd Definition
km/h
Visibility Definition
km
Stn Press Definition
kPa
Hmdx Definition


Wind Chill Definition


Weather Definition


00:00 -9.4 -10.7 90 0.3   0   98.69     LegendNANA
01:00 -9.2 -10.5 90 0.4   0   98.68     LegendNANA
02:00 -9.4 -10.7 90 0.0   0   98.66     LegendNANA
03:00 -9.3 -10.7 90 0.3   0   98.69     LegendNANA
04:00 -9.2 -10.9 88 0.2   0   98.69     LegendNANA
05:00 -9.9 -11.6 87 0.0 29 5   98.68   -13 LegendNANA
06:00 -13.0 -14.7 87 0.0   0   98.67     LegendNANA
07:00 -16.4 -17.9 88 0.2   0   98.69     LegendNANA
08:00 -17.9 -19.7 86 0.0 34 4   98.71   -21 LegendNANA
09:00 -15.1 -16.7 88 0.0 33 3   98.75   -17 LegendNANA
10:00 -10.3 -11.7 89 0.0 32 6   98.77   -14 LegendNANA
11:00 -8.3 -11.5 78 0.0 31 10   98.73   -13 LegendNANA
12:00 -7.2 -10.9 74 0.0 30 14   98.64   -13 LegendNANA
13:00 -7.2 -11.5 71 0.0 29 15   98.57   -13 LegendNANA
14:00 -6.7 -11.9 67 0.0 29 17   98.51   -13 LegendNANA
15:00 -6.9 -12.9 63 0.0 29 15   98.48   -13 LegendNANA
16:00 -7.3 -13.0 64 0.0 30 15   98.44   -13 LegendNANA
17:00 -8.0 -13.4 65 0.0 29 18   98.38   -15 LegendNANA
18:00 -9.0 -14.3 65 0.0 31 14   98.34   -15 LegendNANA
19:00 -9.5 -14.9 65 0.0 31 13   98.30   -16 LegendNANA
20:00 -9.9 -15.0 66 0.0 30 16   98.24   -17 LegendNANA
21:00 -10.0 -14.4 70 0.0 30 16   98.16   -17 LegendNANA
22:00 -9.8 -14.2 70 0.0 31 19   98.15   -17 LegendNANA
23:00 -10.4 -14.9 70 0.0 31 26   98.13   -19 LegendNANA

Notes on Data Quality.

Legend

  • E = Estimated
  • M = Missing
  • NA = Not Available*
  • [empty] = Indicates an unobserved value
Date modified: